Weather History for Cajamarca, Peru

Change the Weather History Date:

Wednesday, February 13, 2013

  Actual Average Record
Temperature  
Mean Temperature 52 °F -  
Max Temperature 72 °F - - ()
Min Temperature 33 °F - - ()
Degree Days  
Heating Degree Days 12    
Growing Degree Days 2 (Base 50)    
Moisture  
Dew Point 48 °F    
Average Humidity 66    
Maximum Humidity 100    
Minimum Humidity 37    
Precipitation  
Precipitation 0.00 in - - ()
Sea Level Pressure  
Sea Level Pressure 30.30 in    
Wind  
Wind Speed 4 mph ()    
Max Wind Speed 16 mph    
Max Gust Speed -    
Visibility 6.1 miles    
Events      
T = Trace of Precipitation, MM = Missing Value Source: Averaged Metar Reports

Daily Weather History Graph

Daily Weather History Graph

Search for Another Location

Airport:

Trip Planner

Search our weather history database for the weather conditions in past years. The results will help you decide how hot, cold, wet, or windy it might be!

Date:

Astronomy

Feb. 13, 2013 Rise Set
Actual Time 6:17 AM PET 6:38 PM PET
Civil Twilight 5:56 AM PET 6:59 PM PET
Nautical Twilight 5:31 AM PET 7:24 PM PET
Astronomical Twilight 5:06 AM PET 7:49 PM PET
Moon 9:00 AM PET (2/13) 9:15 PM PET (2/13)
Length of Visible Light 13h 03m
Length of Day
12h 20m
Waxing Crescent, 13% of the Moon is Illuminated
Feb 13
Waxing Crescent
Feb 17
First Quarter
Feb 25
Full
Mar 4
Last Quarter
Mar 11
New

Hourly Weather History & Observations

Time (PET) Temp. Dew Point Humidity Pressure Visibility Wind Dir Wind Speed Gust Speed Precip Events Conditions
4:00 AM 43 °F 43 °F 99%  in 6 mi NNW 2.3 mph - -   Clear
4:00 AM 42.8 °F 42.8 °F 100% 30.33 in - Variable 2.3 mph - N/A   Clear
5:00 AM 42.8 °F 41.0 °F 93% 30.33 in - Variable 2.3 mph - N/A   Clear
6:00 AM 41.0 °F 41.0 °F 100% 30.33 in - Variable 2.3 mph - N/A   Clear
6:30 AM 41.0 °F 41.0 °F 100% 30.33 in - Variable 2.3 mph - N/A   Clear
7:00 AM 41 °F 40 °F 95%  in 6 mi North 1.2 mph - -   Partly Cloudy
7:00 AM 41.0 °F 41.0 °F 100% 30.33 in - Variable 1.2 mph - N/A   Clear
7:30 AM 44.6 °F 41.0 °F 87% 30.36 in - Variable 1.2 mph - N/A   Clear
8:00 AM 48.2 °F 41.0 °F 76% 30.36 in - Variable 1.2 mph - N/A   Clear
8:30 AM 55.4 °F 48.2 °F 77% 30.36 in - Variable 2.3 mph - N/A   Clear
9:00 AM 57.2 °F 46.4 °F 67% 30.39 in - Variable 1.2 mph - N/A   Clear
9:30 AM 60.8 °F 48.2 °F 63% 30.39 in - Variable 1.2 mph - N/A   Clear
10:00 AM 62 °F 48 °F 50%  in 6 mi SE 3.5 mph - -   Partly Cloudy
10:00 AM 62.6 °F 48.2 °F 59% 30.36 in - SE 3.5 mph - N/A   Clear
10:30 AM 64.4 °F 48.2 °F 56% 30.36 in - Variable 2.3 mph - N/A   Clear
11:00 AM 66.2 °F 50.0 °F 56% 30.36 in - South 3.5 mph - N/A   Clear
11:30 AM 68.0 °F 48.2 °F 49% 30.33 in - SSE 8.1 mph - N/A   Clear
12:00 PM 68.0 °F 50.0 °F 52% 30.33 in - East 3.5 mph - N/A   Clear
12:30 PM 69.8 °F 50.0 °F 49% 30.30 in - South 11.5 mph - N/A   Clear
1:00 PM 70 °F 52 °F 42%  in 6 mi South 12.7 mph - -   Partly Cloudy
1:00 PM 69.8 °F 51.8 °F 53% 30.30 in 6.2 mi South 12.7 mph - N/A   Scattered Clouds
1:30 PM 69.8 °F 51.8 °F 53% 30.27 in 6.2 mi SSE 12.7 mph - N/A   Scattered Clouds
2:00 PM 69.8 °F 53.6 °F 56% 30.27 in 6.2 mi South 16.1 mph - N/A   Partly Cloudy
2:30 PM 69.8 °F 51.8 °F 53% 30.24 in 6.2 mi South 10.4 mph - N/A   Scattered Clouds
3:00 PM 71.6 °F 51.8 °F 50% 30.24 in 6.2 mi South 10.4 mph - N/A   Partly Cloudy
3:30 PM 71.6 °F 51.8 °F 50% 30.21 in 6.2 mi SSW 16.1 mph - N/A   Partly Cloudy
4:00 PM 72 °F 51 °F 37%  in 6 mi South 11.5 mph - -   Partly Cloudy
4:00 PM 71.6 °F 51.8 °F 50% 30.21 in 6.2 mi South 11.5 mph - N/A   Partly Cloudy
4:30 PM 69.8 °F 51.8 °F 53% 30.21 in 6.2 mi WSW 11.5 mph - N/A   Partly Cloudy
5:00 PM 68.0 °F 51.8 °F 56% 30.21 in 6.2 mi WSW 10.4 mph - N/A   Partly Cloudy
5:30 PM 66.2 °F 51.8 °F 60% 30.21 in 6.2 mi SSW 9.2 mph - N/A   Partly Cloudy
6:00 PM 64.4 °F 53.6 °F 68% 30.24 in 6.2 mi South 6.9 mph - N/A   Partly Cloudy